FW3278 Weather Reports


Display with metric or nautical units.
time (UTC)temp
F
wind
direction
speed
MPH
gust
MPH
rain 1hr
in
rain 24hr
in
rain mn
in
humidity
%
barometer
mb
20260906003625 54 263 2.0 5.0 0.00 0.44 0.17 96 1021.1
20260906002703 54 275 2.0 8.0 0.00 0.44 0.17 96 1021.1
20260906001804 54 287 3.0 9.0 0.00 0.44 0.17 96 1021.0
20260906000903 54 281 3.0 9.0 0.00 0.44 0.17 96 1020.9
20260906000024 54 293 2.0 8.0 0.00 0.44 0.17 96 1020.9
20260905235404 54 242 2.0 5.0 0.00 0.44 0.17 96 1020.8
20260905234525 53 283 1.0 8.0 0.00 0.44 0.17 96 1020.8
20260905233604 53 264 1.0 4.0 0.00 0.44 0.17 96 1020.9
20260905232704 52 266 1.0 3.0 0.00 0.44 0.17 96 1020.7
20260905231804 52 258 2.0 5.0 0.00 0.44 0.17 95 1020.6
20260905230925 53 248 2.0 4.0 0.00 0.44 0.17 96 1020.3
20260905230004 52 291 2.0 7.0 0.00 0.44 0.17 96 1020.2
20260905225404 52 290 2.0 7.0 0.00 0.44 0.17 96 1020.1
20260905224504 52 282 1.0 4.0 0.01 0.44 0.17 96 1020.0
20260905223604 52 280 1.0 4.0 0.01 0.44 0.17 96 1019.9
20260905222704 52 250 1.0 5.0 0.01 0.44 0.17 96 1019.8
20260905221804 52 278 1.0 5.0 0.01 0.44 0.17 95 1019.7
20260905220923 52 249 1.0 4.0 0.01 0.44 0.17 95 1019.5
20260905220023 52 309 1.0 5.0 0.01 0.44 0.17 95 1019.3
20260905215402 51 269 2.0 3.0 0.01 0.44 0.17 95 1019.3
20260905214523 51 267 2.0 6.0 0.01 0.44 0.16 95 1019.2
20260905213602 51 282 2.0 8.0 0.01 0.45 0.16 95 1019.0
20260905212702 51 303 1.0 8.0 0.01 0.46 0.16 95 1018.7
20260905211802 51 284 1.0 3.0 0.03 0.47 0.16 95 1018.7
20260905210902 51 282 2.0 5.0 0.03 0.48 0.16 95 1018.5
20260905210002 51 282 2.0 10.0 0.04 0.49 0.16 95 1018.4
20260905205423 51 280 2.0 10.0 0.04 0.50 0.16 95 1018.2
20260905204502 51 287 2.0 7.0 0.03 0.51 0.15 95 1018.0
20260905203602 51 279 2.0 7.0 0.04 0.53 0.15 95 1018.0
20260905202702 51 264 2.0 7.0 0.04 0.53 0.15 95 1017.9
20260905201802 51 274 2.0 4.0 0.03 0.52 0.13 95 1017.7
20260905200902 51 277 2.0 8.0 0.04 0.52 0.13 95 1017.5
20260905200002 51 280 2.0 7.0 0.03 0.51 0.12 95 1017.4
20260905195402 51 271 2.0 7.0 0.04 0.51 0.12 95 1017.4
20260905194502 51 273 3.0 8.0 0.04 0.51 0.12 95 1017.2
20260905193602 51 285 2.0 9.0 0.04 0.50 0.11 95 1017.2
20260905192702 51 273 3.0 8.0 0.04 0.51 0.11 95 1017.3
20260905191802 51 278 2.0 10.0 0.03 0.52 0.10 95 1017.1
20260905190903 51 287 2.0 10.0 0.02 0.53 0.09 95 1017.1
20260905190002 51 279 2.0 6.0 0.02 0.54 0.09 95 1016.8
20260905185402 51 296 2.0 10.0 0.02 0.53 0.08 95 1016.6
20260905184502 51 267 3.0 10.0 0.02 0.53 0.08 95 1016.5
20260905183623 51 269 4.0 15.0 0.01 0.54 0.07 95 1016.4
20260905182702 51 274 4.0 11.0 0.02 0.60 0.07 95 1016.3
20260905181823 51 273 3.0 11.0 0.02 0.62 0.07 95 1016.2
20260905180923 51 273 3.0 8.0 0.02 0.62 0.07 95 1015.8
20260905180002 51 279 3.0 8.0 0.02 0.62 0.07 95 1015.6
20260905175402 51 277 3.0 11.0 0.01 0.61 0.06 94 1015.5
20260905174523 51 278 4.0 11.0 0.02 0.61 0.06 94 1015.3
20260905173602 51 285 5.0 14.0 0.02 0.61 0.06 94 1015.1
20260905172702 51 275 4.0 12.0 0.01 0.60 0.05 94 1015.0
20260905171802 51 273 3.0 10.0 0.01 0.61 0.05 94 1014.8
20260905170902 51 272 3.0 9.0 0.01 0.61 0.05 94 1014.4
20260905170002 51 272 3.0 10.0 0.01 0.61 0.05 94 1014.4
20260905165402 51 275 5.0 10.0 0.01 0.61 0.05 94 1014.4
20260905164502 51 274 4.0 16.0 0.00 0.61 0.04 94 1014.2
20260905163602 51 266 4.0 13.0 0.00 0.62 0.04 94 1014.1
20260905162723 51 274 5.0 13.0 0.00 0.65 0.04 94 1013.9
20260905161802 51 280 5.0 17.0 0.00 0.67 0.04 94 1013.9
20260905160902 51 268 5.0 17.0 0.00 0.68 0.04 94 1013.9
20260905160002 51 280 5.0 10.0 0.00 0.70 0.04 94 1013.8
20260905155402 51 278 5.0 13.0 0.01 0.71 0.04 94 1013.7
20260905154502 51 271 5.0 13.0 0.01 0.72 0.04 94 1013.6
20260905153602 51 281 4.0 13.0 0.02 0.72 0.04 93 1013.5
20260905152723 51 281 4.0 13.0 0.02 0.73 0.04 93 1013.3
20260905151802 51 282 4.0 13.0 0.03 0.74 0.04 93 1013.0
20260905150923 51 279 6.0 15.0 0.03 0.75 0.04 93 1012.7
20260905150023 51 274 5.0 15.0 0.04 0.75 0.04 93 1012.6
20260905145402 51 269 6.0 14.0 0.03 0.74 0.03 93 1012.5
20260905144523 51 274 6.0 19.0 0.04 0.74 0.03 93 1012.1
20260905143602 51 283 6.0 15.0 0.03 0.75 0.02 93 1011.9
20260905142702 51 289 6.0 15.0 0.03 0.76 0.02 93 1011.8
20260905141802 51 283 5.0 17.0 0.02 0.77 0.01 92 1011.7
20260905140902 51 300 5.0 16.0 0.02 0.78 0.01 92 1011.5
20260905140004 51 294 5.0 17.0 0.01 0.78 0.00 92 1011.2
20260905135423 51 287 5.0 15.0 0.01 0.78 0.78 91 1011.2
20260905134502 51 290 5.0 15.0 0.00 0.77 0.77 91 1010.9
20260905133623 51 291 5.0 14.0 0.00 0.77 0.77 91 1010.8
20260905132701 51 289 5.0 16.0 0.00 0.77 0.77 90 1010.7
20260905131823 51 288 6.0 16.0 0.00 0.77 0.77 90 1010.7
20260905130902 51 288 5.0 18.0 0.00 0.77 0.77 89 1010.5
20260905130002 51 285 5.0 16.0 0.00 0.77 0.77 88 1010.4
20260905125402 51 289 5.0 15.0 0.00 0.77 0.77 87 1010.2
20260905095403 51 293 5.0 18.0 0.00 0.77 0.77 88 1007.7
20260905094504 51 290 5.0 18.0 0.00 0.77 0.77 89 1007.5
20260905093625 50 297 4.0 9.0 0.00 0.77 0.77 90 1007.4
20260905092703 50 302 4.0 12.0 0.00 0.77 0.77 90 1007.1
20260905091803 50 290 4.0 15.0 0.01 0.77 0.77 90 1006.8
20260905090904 50 284 5.0 16.0 0.01 0.77 0.77 90 1006.6
20260905090004 50 287 5.0 12.0 0.02 0.77 0.77 91 1006.3
20260905085404 51 285 5.0 11.0 0.02 0.77 0.77 91 1006.2
20260905084503 51 306 5.0 16.0 0.03 0.77 0.77 91 1006.1
20260905083603 51 306 4.0 11.0 0.03 0.77 0.77 91 1006.0
20260905082724 51 299 3.0 8.0 0.03 0.77 0.77 90 1006.0
20260905081804 51 298 4.0 13.0 0.03 0.76 0.76 90 1005.7
20260905080924 52 293 5.0 15.0 0.10 0.76 0.76 90 1005.7
20260905080004 51 293 6.0 12.0 0.21 0.75 0.75 89 1005.5
20260905075403 51 288 6.0 22.0 0.21 0.75 0.75 89 1005.3
20260905074504 51 289 5.0 12.0 0.20 0.74 0.74 88 1005.0
20260905073603 52 272 6.0 14.0 0.20 0.74 0.74 87 1004.9
20260905072704 52 265 6.0 17.0 0.20 0.74 0.74 86 1004.8
20260905071803 54 271 6.0 19.0 0.19 0.73 0.73 82 1004.9
20260905070903 57 276 5.0 20.0 0.12 0.66 0.67 74 1005.0
20260905070004 60 254 4.0 12.0 0.00 0.54 0.54 62 1003.9
20260905065403 60 193 5.0 12.0 0.00 0.54 0.54 62 1003.4
20260905064503 60 182 6.0 17.0 0.00 0.54 0.54 62 1003.6
20260905063624 60 292 5.0 16.0 0.00 0.54 0.54 62 1003.7
20260905062704 61 253 4.0 12.0 0.00 0.54 0.54 62 1003.6
20260905061803 61 288 6.0 17.0 0.00 0.54 0.54 60 1003.8
20260905060924 61 236 5.0 18.0 0.00 0.54 0.54 58 1003.8
20260905060004 62 159 5.0 12.0 0.00 0.54 0.54 56 1003.7
20260905055403 62 159 6.0 16.0 0.00 0.54 0.54 54 1003.3
20260905054503 62 160 7.0 16.0 0.00 0.54 0.54 53 1003.1
20260905053603 63 209 6.0 16.0 0.00 0.54 0.54 51 1003.2
20260905052703 63 168 7.0 19.0 0.00 0.54 0.54 52 1003.2
20260905051803 64 160 7.0 19.0 0.00 0.54 0.54 52 1003.3
20260905050924 64 272 8.0 16.0 0.00 0.54 0.54 50 1003.2
20260905050004 64 253 8.0 19.0 0.00 0.54 0.54 51 1003.3
20260905045403 64 265 7.0 22.0 0.00 0.54 0.54 53 1003.1
20260905044503 64 267 8.0 15.0 0.00 0.54 0.54 54 1003.0
20260905043603 64 276 7.0 21.0 0.00 0.54 0.54 53 1002.8
20260905042703 63 225 7.0 15.0 0.00 0.54 0.54 58 1002.9
20260905041824 64 244 7.0 20.0 0.00 0.54 0.54 59 1002.8
20260905040903 64 284 6.0 17.0 0.00 0.54 0.54 61 1002.8
20260905040003 64 269 7.0 16.0 0.00 0.54 0.54 62 1002.9
20260905035403 64 245 6.0 16.0 0.00 0.54 0.54 64 1003.0
20260905034503 63 189 6.0 15.0 0.02 0.54 0.54 63 1002.9
20260905033624 62 157 6.0 15.0 0.04 0.54 0.54 67 1002.9
20260905032703 60 157 5.0 13.0 0.04 0.54 0.54 71 1003.0
20260905031824 58 157 6.0 12.0 0.04 0.54 0.54 72 1002.9
20260905030903 57 157 7.0 16.0 0.04 0.54 0.54 76 1003.1
20260905030003 56 157 7.0 20.0 0.04 0.54 0.54 75 1003.3
20260905025427 56 157 7.0 19.0 0.04 0.54 0.54 72 1003.3
20260905024503 61 157 7.0 18.0 0.02 0.52 0.52 66 1003.4
20260905023603 64 157 10.0 21.0 0.00 0.50 0.50 63 1002.9
20260905022703 64 157 11.0 29.0 0.00 0.50 0.50 62 1002.9
20260905021803 64 157 11.0 29.0 0.00 0.50 0.50 63 1002.9
20260905020924 64 157 11.0 27.0 0.00 0.50 0.50 67 1003.0
20260905020003 63 157 11.0 18.0 0.00 0.50 0.50 74 1003.4
20260905015403 62 157 11.0 20.0 0.00 0.50 0.50 74 1003.5
20260905014503 62 157 10.0 22.0 0.00 0.50 0.50 74 1003.6
20260905013603 62 157 10.0 22.0 0.00 0.50 0.50 76 1003.5
20260905012703 61 157 8.0 24.0 0.00 0.50 0.50 77 1003.4
20260905011803 60 157 10.0 21.0 0.00 0.50 0.50 79 1003.7
20260905010924 60 157 10.0 25.0 0.00 0.50 0.50 79 1003.7
20260905010003 60 157 10.0 22.0 0.00 0.50 0.50 79 1003.8
20260905005403 60 157 9.0 22.0 0.00 0.50 0.50 80 1003.8
20260905004503 60 157 10.0 19.0 0.00 0.50 0.50 80 1003.9